Melville Hall, Dominica

1:59 PM AST on February 25, 2018 (GMT -0400)
Melville Hall

Weather History for TDPD - November, 2013

Change the Weather History Date:

Thursday, November 7, 2013

  Actual Average Record
Temperature  
Mean Temperature 79 °F -  
Max Temperature 86 °F 83 °F 88 °F (2016)
Min Temperature 72 °F 74 °F 71 °F (1997)
Cooling Degree Days 14    
Growing Degree Days 29 (Base 50)    
Moisture  
Dew Point 73 °F    
Average Humidity 80    
Maximum Humidity 94    
Minimum Humidity 63    
Precipitation  
Precipitation 0.00 in 0.45 in - ()
Sea Level Pressure  
Sea Level Pressure 29.90 in    
Wind  
Wind Speed 5 mph ()    
Max Wind Speed 10 mph    
Max Gust Speed -    
Visibility 8.2 miles    
Events Rain    
Averages and records for this station are not official NWS values.
T = Trace of Precipitation, MM = Missing Value Source: Averaged Metar Reports

Daily Weather History Graph

Daily Weather History Graph

Search for Another Location

Airport or City:

Trip Planner

Search our weather history database for the weather conditions in past years. The results will help you decide how hot, cold, wet, or windy it might be!

Date:

Astronomy

Nov. 07, 2013 Rise Set
Actual Time 6:03 AM AST 5:33 PM AST
Civil Twilight 5:41 AM AST 5:55 PM AST
Nautical Twilight 5:15 AM AST 6:21 PM AST
Astronomical Twilight 4:50 AM AST 6:47 PM AST
Moon 10:00 AM AST (11/7) 9:45 PM AST (11/7)
Length of Visible Light 12h 14m
Length of Day
11h 29m
Waxing Crescent, 22% of the Moon is Illuminated
Nov 7
Waxing Crescent
Nov 10
First Quarter
Nov 17
Full
Nov 25
Last Quarter
Dec 2
New

Hourly Weather History & Observations

Time (AST) Temp. Heat Index Dew Point Humidity Pressure Visibility Wind Dir Wind Speed Gust Speed Precip Events Conditions
12:00 AM 75.2 °F - 73.4 °F 94% 29.92 in 6.2 mi West 3.5 mph - N/A   Scattered Clouds
1:00 AM 73.4 °F - 71.6 °F 94% 29.92 in 6.2 mi West 3.5 mph - N/A   Mostly Cloudy
6:00 AM 73.4 °F - 71.6 °F 94% 29.89 in 6.2 mi West 6.9 mph - N/A   Scattered Clouds
7:00 AM 75.2 °F - 73.4 °F 94% 29.89 in 6.2 mi West 6.9 mph - N/A   Partly Cloudy
8:00 AM 81 °F - 75 °F 78% 29.91 in 17 mi West 4.6 mph - -   Partly Cloudy
8:00 AM 80.6 °F 86.2 °F 75.2 °F 84% 29.89 in 6.2 mi West 4.6 mph - N/A   Partly Cloudy
9:00 AM 84.2 °F 92.3 °F 75.2 °F 74% 29.92 in 6.2 mi East 5.8 mph - N/A   Partly Cloudy
10:00 AM 84.2 °F 90.9 °F 73.4 °F 70% 29.92 in 6.2 mi ESE 5.8 mph - N/A   Mostly Cloudy
11:00 AM 85 °F - 74 °F 63% 29.94 in 16 mi East 8.1 mph - -   Partly Cloudy
11:00 AM 86.0 °F 95.1 °F 75.2 °F 70% 29.92 in 6.2 mi East 8.1 mph - N/A   Scattered Clouds
12:00 PM 84.2 °F 90.9 °F 73.4 °F 70% 29.92 in 6.2 mi East 10.4 mph - N/A   Mostly Cloudy
1:00 PM 86.0 °F 93.4 °F 73.4 °F 66% 29.89 in 6.2 mi SE 3.5 mph - N/A   Mostly Cloudy
2:00 PM 81 °F - 72 °F 67% 29.88 in 16 mi West 5.8 mph - -   Mostly Cloudy
2:00 PM 80.6 °F 84.6 °F 71.6 °F 74% 29.86 in 6.2 mi West 5.8 mph - N/A   Mostly Cloudy
3:00 PM 84.2 °F 90.9 °F 73.4 °F 70% 29.86 in 6.2 mi SE 4.6 mph - N/A   Mostly Cloudy
4:00 PM 86.0 °F 93.4 °F 73.4 °F 66% 29.86 in 6.2 mi SE 5.8 mph - N/A   Mostly Cloudy
5:00 PM 82 °F - 75 °F 74% 29.87 in 16 mi NW 2.3 mph - -   Partly Cloudy
5:00 PM 82.4 °F 88.2 °F 73.4 °F 74% 29.86 in 6.2 mi SE 3.5 mph - N/A   Partly Cloudy
6:00 PM 77.0 °F - 73.4 °F 89% 29.89 in 6.2 mi West 5.8 mph - N/A   Partly Cloudy
7:00 PM 77.0 °F - 73.4 °F 89% 29.89 in 6.2 mi West 6.9 mph - N/A   Scattered Clouds
8:00 PM 75 °F - 73 °F 90% 29.92 in 15 mi West 6.9 mph - - Rain Light Rain Showers
8:00 PM 75.2 °F - 73.4 °F 94% 29.92 in 6.2 mi West 6.9 mph - N/A   Scattered Clouds
9:00 PM 75.2 °F - 73.4 °F 94% 29.92 in 6.2 mi West 4.6 mph - N/A Rain Light Rain Showers
10:00 PM 75.2 °F - 73.4 °F 94% 29.92 in 6.2 mi West 6.9 mph - N/A   Scattered Clouds